Regional Weather Roundup
Issued by NWS Kansas City/Pleasant Hill, MO

Home | Current Version | Previous Version | Text Only | Print | Product List | Glossary On
Versions: 1 2 3 4 5 6 7 8 9 10 11 12 13 14 15 16 17 18 19 20 21 22 23 24 25 26 27 28 29 30 31 32 33 34 35 36 37 38 39 40 41 42 43 44 45 46 47 48 49 50
000
ASUS43 KEAX 250511
RWREAX

WEATHER ROUNDUP FOR EASTERN KANSAS AND NORTHWEST MISSOURI
NATIONAL WEATHER SERVICE KANSAS CITY/PLEASANT HILL MO
1200 AM CDT SAT OCT 25 2014

KSZ040-057-103>105-MOZ028-029-037-043-250600-
...KANSAS CITY METROPOLITAN AREA...

CITY           SKY/WX    TMP DP  RH WIND       PRES   REMARKS
K.C. INTL      CLEAR     62  60  93 S9        29.99S
K.C. DOWNTOWN  CLEAR     67  61  81 W3        29.99S
LEES SUMMIT    CLEAR     64  60  87 SW7       30.00S
OLATHE - IXD   CLEAR     60  59  96 S6        30.01S
OLATHE - OJC   CLEAR     62  61  96 SW6       30.00S
LAWRENCE       CLEAR     56  55  97 N3        30.00R FOG

$$

MOZ001>008-011>017-020>025-030>033-038>040-044>046-053-054-250600-
...NORTHERN AND CENTRAL MISSOURI...

CITY           SKY/WX    TMP DP  RH WIND       PRES   REMARKS
ST. JOSEPH     FOG       58  58 100 CALM      29.99R VSB 3/4
MOSBY          CLEAR     61  61 100 CALM      29.98F
WHITEMAN AFB   FAIR      63  60  90 SW8       30.00S
CLINTON        CLEAR     63  61  94 SW3       30.03S FOG
SEDALIA        CLEAR     66  60  81 SW12      30.02S
WARSAW         NOT AVBL
MARSHALL       CLEAR     66  63  88 SW7       30.00S
CHILLICOTHE      N/A     59  57  93 CALM      29.99S
MOBERLY        PTCLDY    66  59  77 SW9       30.00R
KIRKSVILLE     PTCLDY    60  59  96 CALM      29.99R

$$

MOZ041-047>049-056>058-063>065-088>090-097-250600-
...EASTERN AND SOUTHERN MISSOURI...

CITY           SKY/WX    TMP DP  RH WIND       PRES   REMARKS
ST. LOUIS INTL PTCLDY    65  55  70 SW8       29.99F
SPIRIT OF STL  CLEAR     63  57  81 W5        29.98S
COLUMBIA       CLEAR     64  60  87 SW8       30.01S
JEFFERSON CITY CLEAR     63  59  87 CALM      30.01S
MEXICO         PTCLDY   N/A N/A N/A SW8       29.99S
HANNIBAL       MOCLDY    63  59  88 SW7       29.97S
ROLLA          CLEAR     61  57  87 SW13      30.02R
LEBANON        CLEAR     61  57  88 SW7       30.05S
OSAGE BEACH    CLEAR     63  57  82 SW5       30.03S
SPRINGFIELD    CLEAR     61  58  90 S8        30.05F
BRANSON        CLEAR     63  57  82 SW5       30.08F
NEVADA         CLEAR     63  59  88 SW8       30.04R
JOPLIN         CLEAR     64  59  83 S9        30.05S
WEST PLAINS    CLEAR     60  55  83 SW6       30.07F

$$

IAZ060-094-KSZ022-034>040-054-083-096-NEZ052-066-093-250600-
...KANSAS...SOUTHEAST NEBRASKA AND IOWA...

CITY           SKY/WX    TMP DP  RH WIND       PRES   REMARKS
TOPEKA         CLEAR     59  58  96 CALM      30.00S
MANHATTAN      CLEAR     62  60  93 CALM      30.00S
EMPORIA        CLEAR     63  61  93 SW7       30.00S
CHANUTE        CLEAR     63  60  90 S9        30.02S
WICHITA        CLEAR     62  58  86 S5        30.02S
OMAHA          CLEAR     52  51  97 NW5       30.01S
LINCOLN        CLEAR     53  49  86 N5        30.03R
FALLS CITY     CLEAR     59  57  93 NW5       29.98S
LAMONI         FOG       55  54  96 CALM      29.99R VSB 1/4
DES MOINES     FOG       56  54  93 W3        29.97S VSB 1/4

$$




USA.gov is the U.S. government's official web portal to all federal, state and local government web resources and services.